Weather History for Randolph AFB, TX

Change the Weather History Date:

Friday, November 11, 2011

  Actual Average Record
Temperature  
Mean Temperature 50 °F -  
Max Temperature 68 °F 69 °F 84 °F (1999)
Min Temperature 32 °F 51 °F 32 °F (2011)
Degree Days  
Heating Degree Days 15    
Moisture  
Dew Point 26 °F    
Average Humidity 41    
Maximum Humidity 73    
Minimum Humidity 16    
Precipitation  
Precipitation 0.00 in - - ()
Sea Level Pressure  
Sea Level Pressure 30.20 in    
Wind  
Wind Speed 7 mph (SW)    
Max Wind Speed 15 mph    
Max Gust Speed 21 mph    
Visibility 10 miles    
Events      
Averages and records for this station are not official NWS values.
T = Trace of Precipitation, MM = Missing Value Source: NWS Daily Summary

Daily Weather History Graph

Daily Weather History Graph

Search for Another Location

Airport:

Trip Planner

Search our weather history database for the weather conditions in past years. The results will help you decide how hot, cold, wet, or windy it might be!

Date:

Astronomy

Nov. 11, 2011 Rise Set
Actual Time 6:53 AM CST 5:39 PM CST
Civil Twilight 6:28 AM CST 6:04 PM CST
Nautical Twilight 6:00 AM CST 6:33 PM CST
Astronomical Twilight 5:32 AM CST 7:01 PM CST
Moon 6:16 PM CST (11/11) 7:37 AM CST (11/11)
Length of Visible Light 11h 36m
Length of Day
10h 46m
Full, 99% of the Moon is Illuminated
Nov 11
Full
Nov 18
Last Quarter
Nov 25
New
Dec 2
First Quarter
Dec 10
Full

Hourly Weather History & Observations

Time (CST) Temp. Windchill Dew Point Humidity Pressure Visibility Wind Dir Wind Speed Gust Speed Precip Events Conditions
12:55 AM 37.4 °F 32.8 °F 26.4 °F 65% 30.32 in 10.0 mi NNW 5.8 mph - N/A   Clear
1:55 AM 35.2 °F 30.3 °F 26.1 °F 69% 30.30 in 10.0 mi NNW 5.8 mph - N/A   Clear
2:55 AM 34.9 °F 29.0 °F 26.6 °F 72% 30.29 in 10.0 mi NNW 6.9 mph - N/A   Clear
3:55 AM 34.2 °F 30.0 °F 26.2 °F 73% 30.28 in 10.0 mi NNW 4.6 mph - N/A   Clear
4:55 AM 33.4 °F 28.1 °F 25.7 °F 73% 30.28 in 10.0 mi NNW 5.8 mph - N/A   Clear
5:55 AM 33.3 °F 27.1 °F 25.0 °F 72% 30.28 in 10.0 mi NW 6.9 mph - N/A   Clear
6:55 AM 32.9 °F 26.7 °F 25.0 °F 73% 30.29 in 10.0 mi NNW 6.9 mph - N/A   Clear
7:55 AM 38.5 °F 36.1 °F 28.6 °F 68% 30.30 in 10.0 mi NNW 3.5 mph - N/A   Clear
8:55 AM 50.7 °F - 31.5 °F 48% 30.30 in 10.0 mi Calm Calm - N/A   Clear
9:55 AM 59.5 °F - 26.2 °F 28% 30.29 in 10.0 mi SW 8.1 mph - N/A   Clear
10:55 AM 63.3 °F - 23.9 °F 22% 30.27 in 10.0 mi SSW 15.0 mph 20.7 mph N/A   Clear
11:55 AM 65.1 °F - 23.9 °F 21% 30.24 in 10.0 mi South 12.7 mph 18.4 mph N/A   Clear
12:55 PM 66.4 °F - 23.0 °F 19% 30.20 in 10.0 mi SSW 11.5 mph 19.6 mph N/A   Clear
1:55 PM 66.7 °F - 22.3 °F 18% 30.16 in 10.0 mi South 10.4 mph 18.4 mph N/A   Clear
2:55 PM 68.2 °F - 23.2 °F 18% 30.14 in 10.0 mi South 8.1 mph - N/A   Clear
3:55 PM 68.2 °F - 20.7 °F 16% 30.13 in 10.0 mi SSW 11.5 mph - N/A   Clear
4:55 PM 67.5 °F - 20.7 °F 17% 30.12 in 10.0 mi South 11.5 mph - N/A   Clear
5:55 PM 62.1 °F - 20.8 °F 21% 30.11 in 10.0 mi South 8.1 mph - N/A   Mostly Cloudy
6:53 PM 57.2 °F - 23.0 °F 27% 30.11 in 10.0 mi South 8.1 mph - N/A   Light Drizzle
6:55 PM 57.7 °F - 22.3 °F 25% 30.11 in 10.0 mi South 8.1 mph - 0.00 in   Light Drizzle
7:02 PM 57.2 °F - 23.0 °F 27% 30.11 in 10.0 mi South 8.1 mph - N/A   Partly Cloudy
7:55 PM 58.6 °F - 22.1 °F 24% 30.12 in 10.0 mi South 6.9 mph - 0.00 in   Overcast
8:55 PM 58.3 °F - 26.1 °F 29% 30.13 in 10.0 mi South 9.2 mph - N/A   Mostly Cloudy
9:55 PM 54.7 °F - 31.3 °F 41% 30.12 in 10.0 mi South 8.1 mph - N/A   Clear
10:55 PM 53.8 °F - 36.5 °F 52% 30.11 in 10.0 mi SSW 6.9 mph - N/A   Clear
11:55 PM 52.7 °F - 38.5 °F 58% 30.09 in 10.0 mi SSW 5.8 mph - N/A   Clear